{"data":{"norad_id":87405,"epoch":"2026-05-20T04:10:37.955424Z","epoch_age_seconds":485833,"freshness":"STALE","line1":"1 87405U          26140.17405041  .00000388  00000+0  26390-3 0  9990","line2":"2 87405  82.7496 295.0656 0057948 233.6682 125.9129 13.96990669633276","mean_motion":13.96990669,"eccentricity":0.0057948,"inclination_deg":82.7496,"raan_deg":295.0656,"arg_perigee_deg":233.6682,"mean_anomaly_deg":125.9129,"bstar":0.0002639,"rev_number":63327,"period_min":103.07871283283,"perigee_km":862.03474183675,"apogee_km":946.43451606765,"semimajor_km":7282.3716289522,"source":"CELESTRAK","updated_at":"2026-05-25T13:38:11.669698Z"}}